Flag for Germany Weather past 2 weeks in Leipzig, Saxony, Germany

Now
50 °F

Overcast.


Feels Like: 45 °F
Forecast: 43 / 60 °F
Wind: 13 mph from Northwest

Location: Leipzig-Schkeuditz

Current Time: Sep 23, 2014 at 2:54:05 AM

Latest Report: Sep 23, 2014 at 2:20 AM


Visibility: N/A

Pressure: 30.04 "Hg

Humidity: 94%

Dew point: 48 °F

Location of LeipzigLocation

Historic Weather in Leipzig — Graph

°F

Leipzig temperature yesterday

Maximum temperature yesterday: 55 °F (at 9:50 AM)
Minimum temperature yesterday: 50 °F (at 6:50 PM)
Average temperature yesterday: 53 °F

Past Weeks' High & Low Weather Summary

 TemperatureHumidityPressure
High75 °F (Sep 16, 3:20 PM)100% (Sep 8, 2:20 AM)30.15 "Hg (Sep 8, 2:20 AM)
Low50 °F (Sep 9, 6:20 AM)44% (Sep 17, 4:50 PM)29.89 "Hg (Sep 19, 3:50 PM)
Average61 °F88%30.01 "Hg
* Reported Sep 8 1:20 AM — Sep 23 1:50 AM, Leipzig, Weather by CustomWeather, © 2014

Note: Actual official high and low records may vary slightly from our data, if they occured in-between our weather recording intervals... More about our weather records

Advertising

Leipzig weather history for previous 24 hours

 ConditionsComfort  
Time TempWeatherWind HumidityBarometerVisibility
1:50 AM
Sep 23
50 °FLight rain. Mostly cloudy.9 mph94%30.04 "HgN/A
1:20 AM50 °FLight rain. Mostly cloudy.10 mph100%30.04 "HgN/A
12:50 AM50 °FLight rain. Mostly cloudy.10 mph94%30.01 "HgN/A
12:20 AM50 °FLight rain. Passing clouds.13 mph94%30.01 "HgN/A
11:50 PM
Sep 22
50 °FLight rain. Passing clouds.10 mph94%30.01 "HgN/A
11:20 PM50 °FLight rain. Passing clouds.13 mph94%30.01 "HgN/A
10:50 PM50 °FPassing clouds.10 mph88%30.01 "HgN/A
10:20 PM50 °FLight rain. Overcast.13 mph94%29.98 "HgN/A
9:50 PM50 °FLight rain. Overcast.15 mph88%29.98 "HgN/A
9:20 PM50 °FLight rain. Overcast.13 mph88%29.98 "HgN/A
8:50 PM50 °FLight rain. Mostly cloudy.13 mph88%29.98 "HgN/A
8:20 PM50 °FLight rain. Mostly cloudy.10 mph88%29.98 "HgN/A
7:50 PM50 °FLight rain. Mostly cloudy.10 mph88%29.98 "HgN/A
7:20 PM50 °FLight rain. More clouds than sun.12 mph88%29.98 "HgN/A
6:50 PM50 °FLight rain. More clouds than sun.20 mph82%29.95 "HgN/A
6:20 PM54 °FSprinkles. Partly sunny.15 mph67%29.95 "HgN/A
5:50 PM54 °FSprinkles. Broken clouds.9 mph82%29.92 "HgN/A
5:20 PM54 °FPartly sunny.10 mph77%29.92 "HgN/A
4:50 PM52 °FPartly sunny.9 mph77%29.92 "HgN/A
4:20 PM52 °FPartly sunny.13 mph72%29.92 "HgN/A
3:50 PM52 °FSprinkles. Scattered clouds.16 mph72%29.92 "HgN/A
3:20 PM52 °FSprinkles. Scattered clouds.18 mph72%29.92 "HgN/A
2:50 PM55 °FScattered clouds.18 mph67%29.89 "HgN/A
2:20 PM54 °FPartly sunny.18 mph72%29.89 "HgN/A
1:50 PM52 °FPartly sunny.17 mph72%29.89 "HgN/A
1:20 PM52 °FPartly sunny.13 mph77%29.89 "HgN/A
12:50 PM54 °FPartly sunny.17 mph67%29.89 "HgN/A
12:20 PM52 °FScattered clouds.15 mph82%29.89 "HgN/A
11:50 AM54 °FSprinkles. Scattered clouds.16 mph82%29.89 "HgN/A
11:20 AM54 °FSprinkles. Partly sunny.17 mph82%29.89 "HgN/A
10:50 AM55 °FBroken clouds.20 mph77%29.89 "HgN/A
10:20 AM55 °FPartly sunny.18 mph77%29.89 "HgN/A
9:50 AM55 °FBroken clouds.17 mph82%29.89 "HgN/A
9:20 AM54 °FBroken clouds.16 mph88%29.89 "HgN/A
8:50 AM54 °FBroken clouds.16 mph82%29.89 "HgN/A
8:20 AM54 °FBroken clouds.16 mph88%29.92 "HgN/A
7:50 AM54 °FPassing clouds.16 mph88%29.92 "HgN/A
7:20 AM54 °FPassing clouds.14 mph88%29.92 "HgN/A
6:50 AM54 °FPartly cloudy.12 mph88%29.92 "HgN/A
6:20 AM54 °FPassing clouds.13 mph88%29.92 "HgN/A
5:50 AM54 °FPassing clouds.14 mph88%29.92 "HgN/A
5:20 AM54 °FPassing clouds.13 mph88%29.92 "HgN/A
4:50 AM54 °FPartly cloudy.14 mph88%29.92 "HgN/A
4:20 AM54 °FPassing clouds.14 mph88%29.92 "HgN/A
3:50 AM54 °FPassing clouds.14 mph88%29.92 "HgN/A
3:20 AM54 °FPartly cloudy.14 mph88%29.92 "HgN/A
2:50 AM54 °FPartly cloudy.14 mph88%29.92 "HgN/A
2:20 AM54 °FClear.13 mph88%29.92 "Hg10 mi
Weather by CustomWeather, © 2014

See weather overviewHow to use our weather pages